カタログに戻る

STARLINK-34211

運用中通信VLEO
NORAD 64255·PAYLOAD·🇺🇸 United States

打ち上げ Jun 3, 2025 から Cape Canaveral Space Force Station

Loading…

次のパス (今後24時間)

TLE

最新Source: CelesTrak SupGP

元期: Sep 14, 2026, 20:53 UTC

1 64255C 25119Y   26257.87062500 -.00025994  00000+0 -94151-3 0  2570
2 64255  43.0021 319.0421 0001583 267.5271 235.7854 15.27590458    12

AllMySatでSTARLINK-34211をリアルタイム追跡

Download on the App Store